Location: Madden
(51.3728°N, 114.3297°W)
Time: 09:49:50
(UTC+00:00)

FLOCK 4Y 23 - Visible Passes

Search period start: 26 May 2024 00:00
Search period end: 05 June 2024 00:00
Orbit: 472 x 489 km, 97.4° (Epoch: 25 May)

Date Brightness Start Highest point End Pass type
(mag) Time Alt. Az. Time Alt. Az. Time Alt. Az.
26 May ? 05:16:02 10° SSW 05:19:19 33° W 05:22:39 10° NNW visible
27 May ? 04:50:01 10° S 04:53:36 64° WSW 04:57:13 10° NNW visible
28 May ? 04:24:22 10° SSE 04:27:56 64° ENE 04:31:33 10° N visible
28 May ? 06:00:06 10° WSW 06:01:42 12° W 06:03:20 10° WNW visible
29 May ? 05:32:53 10° SSW 05:35:47 22° W 05:38:42 10° NW visible
30 May ? 05:06:29 10° S 05:09:54 42° W 05:13:23 10° NNW visible
31 May ? 04:40:30 10° SSE 04:44:07 83° WSW 04:47:45 10° NNW visible
01 Jun ? 05:49:45 10° SW 05:52:00 16° W 05:54:16 10° NW visible
02 Jun ? 05:22:50 10° SSW 05:26:00 28° W 05:29:11 10° NW visible
03 Jun ? 04:56:31 10° S 05:00:03 54° W 05:03:38 10° NNW visible
04 Jun ? 04:30:35 10° SSE 04:34:10 75° ENE 04:37:48 10° N visible
04 Jun ? 06:07:06 10° WSW 06:08:01 11° W 06:08:56 10° WNW visible
